When you browse on this site, cookies collect data to enhance your experience and personalize the content and advertising you see.
Visit our Privacy Policy to learn more. By continuing to use the site, you agree to this use of cookies and data.
  • In United Kingdom
  • List of Countries
  • For 7 days
  • Water Temperature
  • Weather Map
  • Weather Widgets
  • user-avatar
    Login

    Hourly Weather Debrecen

    Today, 2 April, Thursday

    Time Temperature Precipitation Wind Pressure Humidity
    00:00 +2°C° 0 mm 1 mps 753 mmHg 41%
    01:00 +1°C° 0 mm 1 mps 753 mmHg 43%
    02:00 +1°C° 0 mm 1 mps 752 mmHg 44%
    03:00 +1°C° 0 mm 1 mps 752 mmHg 46%
    04:00 +1°C° 0 mm 1 mps 752 mmHg 47%
    05:00 -1°C° 0 mm 2 mps 752 mmHg 47%
    06:00 +1°C° 0 mm 2 mps 752 mmHg 47%
    07:00 +2°C° 0 mm 2 mps 752 mmHg 47%
    08:00 +4°C° 0 mm 2 mps 752 mmHg 43%
    09:00 +6°C° 0 mm 2 mps 752 mmHg 39%
    10:00 +7°C° 0 mm 2 mps 751 mmHg 35%
    11:00 +8°C° 0 mm 2 mps 751 mmHg 34%
    12:00 +9°C° 0 mm 3 mps 751 mmHg 33%
    13:00 +10°C° 0 mm 3 mps 751 mmHg 32%
    14:00 +10°C° 0 mm 3 mps 750 mmHg 34%
    15:00 +10°C° 0 mm 2 mps 750 mmHg 35%
    16:00 +10°C° 0 mm 2 mps 749 mmHg 37%
    17:00 +8°C° 0 mm 2 mps 749 mmHg 42%
    18:00 +6°C° 0 mm 2 mps 749 mmHg 48%
    19:00 +6°C° 0 mm 1 mps 749 mmHg 53%
    20:00 +5°C° 0 mm 1 mps 749 mmHg 55%
    21:00 +5°C° 0 mm 1 mps 749 mmHg 56%
    22:00 +4°C° 0 mm 1 mps 749 mmHg 57%
    23:00 +4°C° 0 mm 1 mps 749 mmHg 59%

    Tomorrow, 3 April, Friday

    Time Temperature Precipitation Wind Pressure Humidity
    00:00 +4°C° 0 mm 1 mps 749 mmHg 61%
    01:00 +2°C° 0 mm 2 mps 749 mmHg 62%
    02:00 +2°C° 0 mm 2 mps 749 mmHg 64%
    03:00 +2°C° 0 mm 2 mps 749 mmHg 66%
    04:00 +2°C° 0 mm 1 mps 748 mmHg 67%
    05:00 +2°C° 0 mm 2 mps 749 mmHg 65%
    06:00 +3°C° 0 mm 2 mps 749 mmHg 63%
    07:00 +4°C° 0 mm 2 mps 749 mmHg 61%
    08:00 +6°C° 0 mm 2 mps 749 mmHg 57%
    09:00 +8°C° 0 mm 3 mps 749 mmHg 53%
    10:00 +10°C° 0 mm 3 mps 749 mmHg 48%
    11:00 +11°C° 0 mm 3 mps 749 mmHg 47%
    12:00 +12°C° 0 mm 4 mps 749 mmHg 46%
    13:00 +12°C° 0 mm 4 mps 749 mmHg 44%
    14:00 +13°C° 0 mm 4 mps 749 mmHg 45%
    15:00 +13°C° 0 mm 3 mps 749 mmHg 46%
    16:00 +13°C° 0 mm 3 mps 748 mmHg 47%
    17:00 +11°C° 0 mm 3 mps 749 mmHg 53%
    18:00 +9°C° 0 mm 2 mps 749 mmHg 59%
    19:00 +8°C° 0 mm 2 mps 750 mmHg 64%
    20:00 +7°C° 0 mm 2 mps 750 mmHg 67%
    21:00 +8°C° 0 mm 1 mps 751 mmHg 69%
    22:00 +7°C° 0 mm 1 mps 751 mmHg 71%
    23:00 +7°C° 0 mm 1 mps 751 mmHg 72%

    Day after tomorrow, 4 April, Saturday

    Time Temperature Precipitation Wind Pressure Humidity
    00:00 +6°C° 0 mm 1 mps 752 mmHg 74%
    01:00 +6°C° 0 mm 1 mps 752 mmHg 75%
    02:00 +6°C° 0 mm 1 mps 752 mmHg 78%
    03:00 +4°C° 0 mm 2 mps 752 mmHg 80%
    04:00 +3°C° 0 mm 3 mps 753 mmHg 83%
    05:00 +4°C° 0 mm 3 mps 753 mmHg 79%
    06:00 +5°C° 0 mm 3 mps 754 mmHg 76%
    07:00 +6°C° 0 mm 4 mps 754 mmHg 73%
    08:00 +7°C° 0 mm 4 mps 754 mmHg 67%
    09:00 +10°C° 0 mm 4 mps 755 mmHg 61%
    10:00 +12°C° 0 mm 4 mps 755 mmHg 55%
    11:00 +12°C° 0 mm 4 mps 755 mmHg 51%
    12:00 +13°C° 0 mm 4 mps 755 mmHg 47%
    13:00 +14°C° 0 mm 4 mps 755 mmHg 43%
    14:00 +13°C° 0 mm 4 mps 755 mmHg 42%
    15:00 +13°C° 0 mm 5 mps 755 mmHg 42%
    16:00 +13°C° 0 mm 5 mps 755 mmHg 42%
    17:00 +11°C° 0 mm 4 mps 756 mmHg 47%
    18:00 +10°C° 0 mm 4 mps 756 mmHg 53%
    19:00 +7°C° 0 mm 4 mps 757 mmHg 58%
    20:00 +7°C° 0 mm 5 mps 758 mmHg 58%
    21:00 +6°C° 0 mm 5 mps 758 mmHg 58%
    22:00 +6°C° 0 mm 5 mps 759 mmHg 58%
    23:00 +5°C° 0 mm 5 mps 759 mmHg 59%

    5 April, Sunday

    Time Temperature Precipitation Wind Pressure Humidity
    00:00 +5°C° 0 mm 5 mps 759 mmHg 60%
    01:00 +3°C° 0 mm 5 mps 760 mmHg 61%
    02:00 +3°C° 0 mm 5 mps 760 mmHg 63%
    03:00 +2°C° 0 mm 5 mps 760 mmHg 65%
    04:00 +2°C° 0 mm 5 mps 760 mmHg 67%
    05:00 +3°C° 0 mm 5 mps 760 mmHg 67%
    06:00 +3°C° 0 mm 5 mps 760 mmHg 67%
    07:00 +5°C° 0 mm 5 mps 761 mmHg 67%
    08:00 +7°C° 0 mm 5 mps 761 mmHg 63%
    09:00 +9°C° 0 mm 5 mps 761 mmHg 59%
    10:00 +12°C° 0 mm 5 mps 761 mmHg 55%
    11:00 +13°C° 0 mm 5 mps 761 mmHg 51%
    12:00 +14°C° 0 mm 5 mps 761 mmHg 48%
    13:00 +15°C° 0 mm 6 mps 761 mmHg 44%
    14:00 +15°C° 0 mm 5 mps 760 mmHg 45%
    15:00 +15°C° 0 mm 5 mps 760 mmHg 45%
    16:00 +14°C° 0 mm 5 mps 760 mmHg 45%
    17:00 +13°C° 0 mm 4 mps 760 mmHg 50%
    18:00 +11°C° 0 mm 4 mps 761 mmHg 54%
    19:00 +9°C° 0 mm 3 mps 761 mmHg 59%
    20:00 +8°C° 0 mm 4 mps 762 mmHg 58%
    21:00 +7°C° 0 mm 4 mps 762 mmHg 58%
    22:00 +6°C° 0 mm 4 mps 762 mmHg 58%
    23:00 +6°C° 0 mm 4 mps 763 mmHg 56%

    6 April, Monday

    Time Temperature Precipitation Wind Pressure Humidity
    00:00 +6°C° 0 mm 4 mps 763 mmHg 54%
    01:00 +5°C° 0 mm 3 mps 763 mmHg 52%
    02:00 +4°C° 0 mm 3 mps 763 mmHg 54%
    03:00 +5°C° 0 mm 2 mps 764 mmHg 56%
    04:00 +4°C° 0 mm 2 mps 764 mmHg 58%
    05:00 +5°C° 0 mm 2 mps 764 mmHg 56%
    06:00 +6°C° 0 mm 2 mps 765 mmHg 54%
    07:00 +7°C° 0 mm 2 mps 765 mmHg 53%
    08:00 +8°C° 0 mm 2 mps 765 mmHg 47%
    09:00 +10°C° 0 mm 2 mps 765 mmHg 42%
    10:00 +12°C° 0 mm 3 mps 765 mmHg 37%
    11:00 +14°C° 0 mm 2 mps 765 mmHg 36%
    12:00 +15°C° 0 mm 2 mps 765 mmHg 34%
    13:00 +16°C° 0 mm 1 mps 765 mmHg 32%
    14:00 +16°C° 0 mm 1 mps 764 mmHg 32%
    15:00 +16°C° 0 mm 1 mps 764 mmHg 31%
    16:00 +16°C° 0 mm 1 mps 764 mmHg 31%
    17:00 +14°C° 0 mm 1 mps 764 mmHg 35%
    18:00 +12°C° 0 mm 1 mps 764 mmHg 40%
    19:00 +11°C° 0 mm 1 mps 764 mmHg 44%
    20:00 +10°C° 0 mm 1 mps 764 mmHg 46%
    21:00 +8°C° 0 mm 2 mps 765 mmHg 47%
    22:00 +7°C° 0 mm 2 mps 765 mmHg 48%
    23:00 +8°C° 0 mm 1 mps 765 mmHg 50%

    7 April, Tuesday

    Time Temperature Precipitation Wind Pressure Humidity
    00:00 +7°C° 0 mm 1 mps 765 mmHg 51%
    01:00 +6°C° 0 mm 1 mps 765 mmHg 53%
    02:00 +6°C° 0 mm 1 mps 765 mmHg 55%
    03:00 +5°C° 0 mm 2 mps 765 mmHg 58%
    04:00 +4°C° 0 mm 2 mps 766 mmHg 60%
    05:00 +5°C° 0 mm 2 mps 766 mmHg 59%
    06:00 +6°C° 0 mm 2 mps 766 mmHg 58%
    07:00 +8°C° 0 mm 1 mps 766 mmHg 57%
    08:00 +9°C° 0 mm 2 mps 766 mmHg 52%
    09:00 +12°C° 0 mm 2 mps 765 mmHg 47%
    10:00 +14°C° 0 mm 2 mps 765 mmHg 42%
    11:00 +15°C° 0 mm 2 mps 765 mmHg 39%
    12:00 +16°C° 0 mm 2 mps 765 mmHg 37%
    13:00 +17°C° 0 mm 3 mps 765 mmHg 34%
    14:00 +17°C° 0 mm 3 mps 764 mmHg 34%
    15:00 +17°C° 0 mm 2 mps 764 mmHg 34%
    16:00 +17°C° 0 mm 2 mps 763 mmHg 33%
    17:00 +15°C° 0 mm 2 mps 763 mmHg 38%
    18:00 +13°C° 0 mm 2 mps 763 mmHg 42%
    19:00 +10°C° 0 mm 2 mps 763 mmHg 47%
    20:00 +10°C° 0 mm 2 mps 763 mmHg 48%
    21:00 +9°C° 0 mm 2 mps 763 mmHg 49%
    22:00 +8°C° 0 mm 2 mps 763 mmHg 50%
    23:00 +8°C° 0 mm 2 mps 763 mmHg 51%
    Show more